Weather History for Russell, KS

Change the Weather History Date:

Sunday, February 17, 2013

  Actual Average Record
Temperature  
Mean Temperature 48 °F -  
Max Temperature 71 °F 46 °F 85 °F (1970)
Min Temperature 24 °F 21 °F -9 °F (1978)
Degree Days  
Heating Degree Days 18    
Moisture  
Dew Point 22 °F    
Average Humidity 47    
Maximum Humidity 81    
Minimum Humidity 12    
Precipitation  
Precipitation 0.00 in - - ()
Sea Level Pressure  
Sea Level Pressure 29.76 in    
Wind  
Wind Speed 10 mph (SSW)    
Max Wind Speed 26 mph    
Max Gust Speed 32 mph    
Visibility 10 miles    
Events      
Averages and records for this station are not official NWS values.
T = Trace of Precipitation, MM = Missing Value Source: NWS Daily Summary

Daily Weather History Graph

Daily Weather History Graph

Search for Another Location

Airport:

Trip Planner

Search our weather history database for the weather conditions in past years. The results will help you decide how hot, cold, wet, or windy it might be!

Date:

Astronomy

Feb. 17, 2013 Rise Set
Actual Time 7:23 AM CST 6:15 PM CST
Civil Twilight 6:56 AM CST 6:42 PM CST
Nautical Twilight 6:25 AM CST 7:13 PM CST
Astronomical Twilight 5:54 AM CST 7:44 PM CST
Moon 11:22 AM CST (2/17) 1:08 AM CST (2/17)
Length of Visible Light 11h 46m
Length of Day
10h 51m
Waxing Crescent, 49% of the Moon is Illuminated
Feb 17
Waxing Crescent
Feb 17
First Quarter
Feb 25
Full
Mar 4
Last Quarter
Mar 11
New

Hourly Weather History & Observations

Time (CST) Temp. Windchill Dew Point Humidity Pressure Visibility Wind Dir Wind Speed Gust Speed Precip Events Conditions
12:53 AM 30.9 °F 25.2 °F 21.0 °F 67% 29.97 in 10.0 mi West 5.8 mph - N/A   Clear
1:53 AM 28.0 °F 19.3 °F 21.0 °F 75% 29.97 in 10.0 mi SW 9.2 mph - N/A   Clear
2:53 AM 27.0 °F 19.5 °F 19.9 °F 75% 29.96 in 10.0 mi SW 6.9 mph - N/A   Clear
3:53 AM 25.0 °F 19.3 °F 19.0 °F 78% 29.95 in 10.0 mi West 4.6 mph - N/A   Clear
4:53 AM 26.1 °F 18.4 °F 19.9 °F 78% 29.93 in 10.0 mi SW 6.9 mph - N/A   Clear
5:53 AM 24.1 °F 16.0 °F 19.0 °F 81% 29.92 in 10.0 mi SSW 6.9 mph - N/A   Clear
6:53 AM 24.1 °F 14.4 °F 19.0 °F 81% 29.92 in 10.0 mi SW 9.2 mph - N/A   Clear
7:53 AM 26.1 °F 19.4 °F 21.0 °F 81% 29.91 in 10.0 mi SSW 5.8 mph - N/A   Clear
8:53 AM 33.1 °F 26.9 °F 25.0 °F 72% 29.90 in 10.0 mi SW 6.9 mph - N/A   Clear
9:53 AM 43.0 °F 37.7 °F 26.1 °F 51% 29.87 in 10.0 mi SSW 9.2 mph - N/A   Clear
10:53 AM 55.0 °F - 28.9 °F 37% 29.83 in 10.0 mi South 8.1 mph - N/A   Clear
11:53 AM 64.0 °F - 23.0 °F 21% 29.79 in 10.0 mi South 16.1 mph - N/A   Clear
12:53 PM 68.0 °F - 21.9 °F 17% 29.74 in 10.0 mi South 17.3 mph 24.2 mph N/A   Clear
1:53 PM 71.1 °F - 17.1 °F 13% 29.68 in 10.0 mi SSW 24.2 mph 29.9 mph N/A   Clear
2:53 PM 71.1 °F - 18.0 °F 13% 29.64 in 10.0 mi South 23.0 mph 32.2 mph N/A   Clear
3:53 PM 71.1 °F - 15.1 °F 12% 29.61 in 10.0 mi SSW 26.5 mph 32.2 mph N/A   Clear
4:53 PM 68.0 °F - 15.8 °F 13% 29.58 in 10.0 mi South 13.8 mph - N/A   Clear
5:53 PM 62.1 °F - 21.9 °F 21% 29.59 in 10.0 mi South 12.7 mph - N/A   Clear
6:53 PM 54.0 °F - 24.1 °F 31% 29.59 in 10.0 mi SSE 11.5 mph - N/A   Clear
7:53 PM 53.1 °F - 28.0 °F 38% 29.58 in 10.0 mi SSE 13.8 mph - N/A   Clear
8:53 PM 53.6 °F - 26.6 °F 35% 29.54 in 10.0 mi South 19.6 mph - N/A   Clear
9:53 PM 52.0 °F - 28.0 °F 40% 29.53 in 10.0 mi South 17.3 mph - N/A   Clear
11:53 PM 48.0 °F - 26.1 °F 42% 29.44 in 10.0 mi South 15.0 mph - N/A   Clear